North Myrtle Beach, SC

3:53 AM EST on December 11, 2019 (GMT -0500)
Grand Strand

Weather History for KCRE - October, 2019

Change the Weather History Date:

Thursday, October 10, 2019

  Actual Average Record
Temperature  
Mean Temperature 66 °F 67 °F  
Max Temperature 75 °F 77 °F 91 °F (2009)
Min Temperature 56 °F 58 °F 35 °F (2000)
Degree Days  
Heating Degree Days 0 1  
Month to date heating degree days 0 10  
Since 1 July heating degree days 0 14  
Cooling Degree Days 1 4  
Month to date cooling degree days 101 50  
Year to date cooling degree days 2284 1834  
Growing Degree Days 16 (Base 50)    
Moisture  
Dew Point 57 °F    
Average Humidity 72    
Maximum Humidity 90    
Minimum Humidity 53    
Precipitation  
Precipitation 0.00 in 0.13 in 2.00 in (2015)
Month to date precipitation 0.03 1.41  
Year to date precipitation 42.60 43.04  
Sea Level Pressure  
Sea Level Pressure 30.14 in    
Wind  
Wind Speed 9 mph (NNE)    
Max Wind Speed 17 mph    
Max Gust Speed 22 mph    
Visibility 10 miles    
Events      
T = Trace of Precipitation, MM = Missing Value Source: NWS Daily Summary

Daily Weather History Graph

Daily Weather History Graph

Search for Another Location

Airport or City:

Astronomy

Oct. 10, 2019 Rise Set
Actual Time 7:15 AM EDT 6:47 PM EDT
Civil Twilight 6:50 AM EDT 7:12 PM EDT
Nautical Twilight 6:21 AM EDT 7:41 PM EDT
Astronomical Twilight 5:52 AM EDT 8:10 PM EDT
Moon 5:36 PM EDT (10/10) 4:10 AM EDT (10/10)
Length of Visible Light 12h 21m
Length of Day
11h 31m
Waxing Gibbous, 91% of the Moon is Illuminated
Oct 10
Waxing Gibbous
Oct 13
Full
Oct 21
Last Quarter
Oct 27
New
Nov 4
First Quarter

Hourly Weather History & Observations

Time (EDT) Temp. Dew Point Humidity Pressure Visibility Wind Dir Wind Speed Gust Speed Precip Events Conditions
12:53 AM 66.9 °F 57.9 °F 73% 30.14 in 10.0 mi NE 10.4 mph - N/A   Overcast
1:53 AM 66.9 °F 57.9 °F 73% 30.14 in 10.0 mi ENE 10.4 mph - N/A   Overcast
2:53 AM 66.0 °F 57.0 °F 73% 30.13 in 10.0 mi NE 13.8 mph - N/A   Overcast
3:53 AM 66.0 °F 57.0 °F 73% 30.13 in 10.0 mi NE 11.5 mph - N/A   Overcast
4:53 AM 64.9 °F 55.9 °F 73% 30.12 in 10.0 mi NE 13.8 mph - N/A   Overcast
5:53 AM 64.9 °F 55.9 °F 73% 30.13 in 10.0 mi NNE 11.5 mph - N/A   Overcast
6:53 AM 64.0 °F 55.9 °F 75% 30.15 in 10.0 mi NE 15.0 mph 20.7 mph N/A   Overcast
7:53 AM 64.0 °F 55.9 °F 75% 30.17 in 10.0 mi NE 15.0 mph 20.7 mph N/A   Overcast
8:53 AM 64.0 °F 55.9 °F 75% 30.18 in 10.0 mi North 12.7 mph - N/A   Overcast
9:53 AM 64.9 °F 55.9 °F 73% 30.19 in 10.0 mi NNE 10.4 mph - N/A   Overcast
10:53 AM 66.9 °F 55.0 °F 66% 30.19 in 10.0 mi NE 11.5 mph - N/A   Mostly Cloudy
11:53 AM 71.1 °F 55.0 °F 57% 30.17 in 10.0 mi NNE 10.4 mph 18.4 mph N/A   Clear
12:53 PM 73.0 °F 55.0 °F 53% 30.15 in 10.0 mi NNE 10.4 mph - N/A   Clear
1:53 PM 73.0 °F 55.9 °F 55% 30.12 in 10.0 mi North 8.1 mph 17.3 mph N/A   Clear
2:53 PM 73.0 °F 55.9 °F 55% 30.11 in 10.0 mi North 11.5 mph - N/A   Clear
3:53 PM 73.9 °F 57.0 °F 55% 30.10 in 10.0 mi NNE 8.1 mph - N/A   Partly Cloudy
4:53 PM 73.9 °F 57.0 °F 55% 30.10 in 10.0 mi NE 8.1 mph - N/A   Clear
5:53 PM 72.0 °F 57.0 °F 59% 30.11 in 10.0 mi North 8.1 mph - N/A   Clear
6:53 PM 66.9 °F 57.0 °F 70% 30.12 in 10.0 mi NE 5.8 mph - N/A   Clear
7:53 PM 63.0 °F 57.9 °F 84% 30.12 in 10.0 mi Calm Calm - N/A   Clear
8:53 PM 62.1 °F 57.9 °F 86% 30.13 in 10.0 mi Calm Calm - N/A   Clear
9:53 PM 60.1 °F 57.9 °F 93% 30.14 in 10.0 mi NE 4.6 mph - N/A   Clear
10:53 PM 62.1 °F 57.9 °F 86% 30.14 in 10.0 mi NNE 3.5 mph - N/A   Clear
11:53 PM 60.1 °F 57.9 °F 93% 30.14 in 10.0 mi Calm Calm - N/A   Clear